Wind_Speed
50 49 51 54 55 53 51 42 38 35 37 42 40 37 29 31 36 33 32 33 35 37 38 41 43 46 47 45 61 70 72 70 70 67 66 64 63 59 57 59 42 30 36 36
47 49 51 54 58 57 52 51 44 38 36 39 33 34 28 35 37 33 28 27 28 31 34 36 41 46 47 47 52 68 74 74 72 70 69 66 63 62 55 54 43 49 34 34
44 48 49 56 60 56 48 47 39 38 28 31 21 19 25 32 35 24 27 26 24 26 26 31 37 44 51 52 54 58 73 76 76 74 70 69 67 61 62 59 51 33 42 48
46 48 51 56 58 59 49 37 37 29 25 12 5 9 11 12 13 17 15 15 18 20 22 31 37 41 47 53 60 59 60 73 78 78 73 69 63 61 61 59 48 52 42 44
48 49 50 57 61 56 49 44 25 17 11 16 10 12 6 9 14 9 9 10 12 13 17 21 24 30 42 53 59 69 67 65 75 78 76 69 65 62 54 50 54 47 52 49
54 55 57 57 60 56 55 33 10 9 10 10 8 5 5 5 3 6 7 9 11 15 16 20 26 26 24 38 56 67 71 67 67 68 71 63 62 56 61 49 47 42 44 50
58 56 53 59 58 56 49 26 15 4 7 4 6 6 5 2 1 4 14 13 10 13 15 16 19 26 22 19 37 59 68 71 66 63 70 54 57 55 59 55 49 49 48 51
60 54 51 61 64 62 49 36 19 15 12 9 6 9 6 9 5 12 17 16 15 13 15 17 17 21 20 24 20 27 50 67 60 57 53 53 59 57 48 53 44 39 40 43
58 55 53 59 63 60 48 37 24 18 13 14 10 10 12 10 13 5 2 2 7 5 7 13 15 19 18 18 23 25 26 47 46 43 55 46 56 55 48 43 39 40 36 32
55 54 53 55 56 61 51 39 35 23 18 14 11 12 10 13 9 5 1 2 4 8 10 13 15 15 26 36 37 30 33 24 24 48 45 42 41 51 46 41 36 35 36 39
54 52 48 55 57 57 61 55 38 29 25 20 16 13 11 12 11 8 3 8 12 16 25 33 44 51 58 54 36 40 28 28 22 35 34 38 30 37 39 35 33 27 27 23
53 50 48 49 49 51 54 55 52 49 39 32 23 20 16 16 13 7 1 3 8 19 28 35 51 51 58 50 44 29 26 26 23 20 20 27 25 30 26 27 19 9 18 16
51 50 48 44 43 45 47 47 41 39 37 34 21 17 16 17 12 5 2 9 17 25 39 43 44 28 32 49 38 42 36 38 29 19 19 19 26 26 25 18 2 9 14 10
47 48 47 41 41 46 49 48 43 35 31 26 28 32 14 12 15 19 20 29 31 42 41 25 18 48 46 47 43 29 35 37 29 25 15 12 18 21 8 8 16 16 17 20
43 45 45 41 36 39 42 46 50 49 47 39 36 32 23 23 26 34 47 40 31 20 18 37 59 46 42 34 41 33 29 31 26 25 20 17 13 6 2 7 7 15 14 16
37 41 42 41 37 36 35 36 40 44 45 46 50 42 33 28 18 17 19 19 32 35 40 45 55 48 36 38 33 30 28 27 25 21 17 13 11 9 5 2 8 11 10 12
31 36 39 41 40 34 31 29 30 34 40 43 45 51 41 41 37 37 41 44 44 45 48 45 45 42 34 23 19 18 20 22 21 19 12 9 6 5 4 7 10 10 12 14
26 31 35 38 36 41 31 28 27 27 28 33 38 43 43 44 40 32 38 37 42 46 40 32 23 21 17 16 14 18 17 16 18 15 12 10 9 8 8 8 6 8 12 12
24 26 30 35 39 38 31 23 22 19 22 25 28 34 38 37 37 40 35 37 39 36 30 28 22 19 17 18 19 21 24 25 24 22 21 18 14 12 9 8 10 9 8 12
22 24 26 28 32 34 33 21 16 17 19 17 20 26 31 35 33 33 32 29 25 23 21 22 26 28 29 26 26 27 26 25 23 19 20 20 19 17 14 11 10 12 14 17
22 23 24 24 29 30 29 25 16 15 16 20 21 24 27 31 33 33 33 32 32 31 28 27 28 28 27 23 22 24 23 27 26 22 19 16 14 13 12 14 16 19 22 25
23 23 24 24 27 25 27 24 18 12 12 13 19 22 22 23 28 30 30 29 27 25 25 25 25 26 26 24 25 26 24 24 21 17 15 14 16 18 18 19 21 23 25 29
21 21 22 25 23 17 21 20 21 16 10 12 15 17 19 20 20 21 21 22 23 24 25 26 30 30 28 24 22 21 21 20 18 16 16 16 16 17 19 22 24 27 31 34
20 18 20 24 16 12 16 16 17 20 19 16 15 15 16 18 20 21 24 30 32 30 28 27 25 23 22 21 19 18 18 19 21 21 20 20 21 22 26 29 33 36 39 43
20 19 18 21 12 8 12 12 13 14 21 24 25 27 28 29 30 29 28 26 25 24 23 22 20 18 16 16 18 20 21 22 23 24 25 26 28 29 32 35 38 41 43 47
18 17 17 18 12 5 8 7 8 11 13 16 17 19 21 22 22 21 20 19 18 17 16 14 13 13 13 15 17 20 23 25 27 30 31 33 35 36 37 40 42 44 46 49
Wind_Direction
337 335 334 336 333 331 325 316 312 305 295 287 276 264 253 250 253 252 250 247 245 245 243 240 241 236 235 224 223 216 219 219 223 221 222 222 224 224 229 230 245 245 227 241
340 340 337 334 332 329 327 321 320 315 300 291 281 268 257 248 252 250 253 253 250 249 249 241 236 236 235 233 225 218 216 219 222 221 222 222 224 227 231 237 237 229 233 248
345 341 337 336 333 328 327 322 325 322 304 299 281 260 242 244 252 267 251 248 249 249 243 242 239 237 236 238 229 225 215 217 220 223 221 221 223 225 231 232 245 253 253 246
347 346 343 339 333 332 337 334 335 323 326 329 242 232 230 264 264 266 253 240 238 242 238 244 249 247 244 238 231 226 221 218 217 221 221 220 221 225 232 232 242 244 260 254
356 352 348 345 345 343 345 343 328 336 31 55 56 220 249 266 291 271 271 253 259 269 273 265 255 247 238 237 231 223 219 221 217 218 221 219 220 225 231 237 236 242 242 259
3 1 0 4 353 348 357 349 342 46 39 71 43 12 356 307 207 259 281 267 258 258 271 272 237 225 235 235 227 225 222 219 224 218 219 218 220 226 227 235 235 244 246 256
10 7 9 6 3 0 8 10 5 10 35 32 39 18 24 29 336 264 267 264 264 249 244 249 247 238 244 249 228 219 220 221 221 220 217 211 217 223 230 235 242 244 256 257
16 10 8 5 6 9 13 23 22 57 58 57 14 11 1 356 270 271 271 261 270 254 235 247 229 223 226 215 201 206 209 214 216 217 209 210 214 219 227 230 247 247 258 265
21 17 16 13 12 15 21 28 37 32 33 50 26 6 20 32 41 29 26 220 220 249 263 249 210 201 211 192 156 163 171 198 211 211 206 208 213 219 224 234 245 250 259 251
23 23 28 31 18 21 29 33 29 29 27 35 32 35 53 53 35 25 337 190 228 236 223 189 166 152 140 130 112 118 139 160 185 201 203 211 214 221 228 235 240 253 254 263
26 26 30 34 31 28 32 31 28 22 24 13 14 28 15 21 19 22 94 147 168 165 151 146 138 134 124 114 109 118 134 164 165 197 209 214 218 218 222 239 243 245 255 266
28 31 29 33 37 34 37 36 28 24 20 13 4 11 5 12 6 24 123 172 175 165 162 162 147 145 125 127 122 122 116 159 159 180 207 203 209 215 222 238 230 256 265 264
29 32 34 35 38 30 22 23 33 37 45 48 43 15 6 2 356 8 47 153 153 159 157 151 133 116 139 110 132 116 121 119 127 137 141 153 200 201 202 172 311 307 296 314
27 34 35 34 33 35 30 30 26 33 28 30 31 38 45 110 129 137 148 152 156 145 129 119 103 111 112 123 114 118 125 111 113 107 122 176 185 197 259 315 322 315 338 324
26 30 37 37 31 38 34 34 40 45 42 36 33 50 49 78 128 124 122 115 115 102 89 114 112 110 122 123 115 112 106 112 116 115 106 108 134 155 338 348 328 335 313 313
21 28 31 41 36 34 38 33 27 33 45 41 51 69 85 89 104 112 99 97 95 94 109 109 107 98 90 96 101 95 101 119 114 114 113 119 133 154 181 274 287 295 322 333
18 23 26 29 35 41 40 34 28 33 37 50 54 63 83 91 86 93 88 88 85 96 98 101 105 103 110 111 91 86 91 100 108 106 100 99 92 72 40 326 345 0 10 359
14 20 20 25 23 32 43 41 33 36 36 50 58 61 70 78 91 91 93 91 94 99 94 105 109 113 108 107 109 98 91 87 77 73 73 71 69 67 66 47 11 13 15 4
8 7 11 16 15 17 31 44 46 41 38 47 54 59 63 64 81 97 92 91 95 95 98 106 98 89 89 92 91 90 85 86 88 89 92 93 93 89 87 75 51 34 7 350
1 2 359 1 8 6 14 36 50 58 64 57 55 62 69 73 73 72 80 86 92 89 79 82 91 89 84 84 85 90 94 94 94 93 87 80 74 67 56 42 23 8 356 344
353 356 357 359 359 0 2 20 46 64 69 80 79 76 83 89 85 82 82 81 78 80 86 90 93 97 99 102 101 97 97 91 87 85 77 67 58 45 29 16 4 355 349 344
345 349 350 352 356 359 358 14 29 68 76 83 91 91 89 91 96 100 102 102 100 100 102 102 100 95 90 87 89 91 88 82 75 66 53 39 25 14 3 355 350 346 338 329
354 1 356 358 357 3 1 23 27 41 88 105 99 97 98 95 93 92 94 96 96 98 97 96 95 94 95 92 84 73 66 60 50 37 25 14 2 354 350 343 333 325 326 327
357 358 2 3 11 19 15 38 42 52 69 86 97 99 102 103 99 98 99 102 100 100 100 99 95 89 82 75 67 56 44 35 24 14 2 350 341 333 329 327 328 328 328 328
350 2 5 6 20 49 35 45 58 75 80 84 90 97 100 99 101 103 104 101 97 95 93 91 88 81 70 57 45 32 22 12 3 354 347 343 337 332 330 329 328 326 326 326
345 6 10 10 17 98 56 56 64 85 83 83 91 95 99 98 100 101 101 101 100 96 90 81 71 58 43 30 16 5 357 349 342 337 335 332 331 329 327 326 325 325 324 325
Height
5616 5605 5595 5584 5571 5559 5547 5538 5529 5526 5518 5510 5509 5508 5513 5508 5506 5510 5514 5518 5522 5527 5534 5540 5548 5556 5565 5574 5579 5591 5603 5616 5626 5639 5648 5661 5671 5679 5682 5684 5686 5690 5701 5705
5611 5600 5589 5577 5564 5550 5536 5525 5518 5511 5502 5495 5494 5497 5498 5495 5497 5502 5507 5510 5514 5518 5522 5528 5536 5546 5556 5564 5571 5580 5592 5604 5615 5628 5636 5648 5660 5669 5675 5678 5684 5691 5690 5692
5609 5598 5585 5571 5555 5541 5527 5513 5505 5494 5490 5482 5481 5482 5485 5486 5488 5497 5499 5503 5507 5510 5514 5519 5526 5534 5543 5551 5561 5570 5582 5592 5603 5614 5627 5638 5650 5660 5667 5674 5677 5680 5686 5689
5607 5595 5581 5566 5549 5530 5518 5505 5495 5485 5481 5476 5475 5478 5480 5483 5486 5489 5493 5497 5501 5504 5507 5512 5517 5523 5530 5538 5548 5561 5570 5577 5591 5603 5618 5629 5641 5652 5659 5667 5669 5676 5679 5683
5607 5593 5579 5560 5538 5522 5510 5498 5488 5483 5481 5478 5479 5481 5480 5483 5485 5486 5489 5492 5495 5497 5501 5504 5508 5514 5518 5523 5534 5540 5553 5567 5579 5592 5605 5622 5635 5645 5653 5659 5666 5671 5674 5678
5603 5589 5572 5554 5535 5518 5501 5490 5487 5485 5484 5482 5483 5483 5483 5483 5484 5485 5487 5488 5491 5494 5496 5500 5504 5507 5510 5512 5517 5532 5547 5558 5571 5585 5599 5618 5629 5639 5647 5653 5660 5665 5669 5673
5603 5587 5571 5559 5542 5519 5505 5493 5489 5487 5486 5486 5485 5485 5483 5483 5484 5484 5483 5484 5486 5489 5493 5496 5500 5503 5507 5511 5516 5525 5540 5554 5567 5583 5595 5612 5623 5633 5640 5648 5655 5660 5663 5668
5601 5586 5572 5555 5534 5514 5504 5496 5492 5491 5490 5489 5487 5486 5485 5483 5481 5481 5479 5480 5482 5485 5488 5492 5493 5498 5504 5510 5513 5521 5535 5551 5566 5579 5594 5608 5618 5628 5637 5646 5652 5657 5659 5661
5604 5590 5577 5558 5540 5528 5515 5505 5502 5499 5496 5492 5490 5487 5484 5481 5479 5479 5476 5477 5480 5482 5485 5488 5491 5496 5502 5508 5515 5528 5539 5557 5570 5580 5592 5604 5614 5624 5635 5644 5649 5651 5655 5654
5608 5596 5584 5568 5553 5538 5524 5516 5512 5506 5501 5496 5492 5489 5487 5484 5483 5479 5478 5478 5479 5481 5483 5486 5489 5495 5503 5512 5518 5530 5551 5566 5568 5582 5592 5603 5614 5624 5634 5641 5643 5647 5647 5648
5612 5602 5592 5577 5563 5548 5539 5527 5519 5515 5510 5503 5497 5494 5491 5488 5485 5482 5480 5479 5478 5481 5484 5486 5489 5496 5502 5510 5528 5543 5560 5567 5568 5584 5595 5604 5614 5622 5631 5636 5639 5641 5640 5644
5617 5607 5595 5584 5571 5558 5551 5541 5530 5521 5516 5506 5500 5497 5494 5491 5486 5486 5482 5483 5483 5483 5484 5485 5492 5497 5504 5513 5531 5547 5560 5575 5581 5586 5594 5604 5613 5620 5631 5633 5635 5636 5638 5639
5623 5613 5603 5591 5584 5570 5563 5553 5545 5538 5532 5522 5512 5507 5500 5495 5491 5490 5487 5486 5488 5487 5488 5494 5503 5508 5512 5528 5546 5560 5569 5577 5583 5591 5595 5604 5611 5620 5627 5628 5628 5631 5637 5634
5628 5618 5609 5599 5591 5582 5570 5564 5555 5548 5539 5534 5528 5519 5516 5510 5503 5498 5494 5492 5493 5497 5499 5504 5515 5521 5530 5545 5557 5566 5576 5579 5586 5593 5598 5605 5612 5618 5624 5624 5623 5625 5629 5631
5632 5625 5617 5609 5600 5593 5583 5574 5566 5560 5550 5541 5534 5530 5523 5523 5516 5510 5512 5510 5510 5512 5512 5515 5524 5535 5547 5559 5566 5575 5580 5584 5590 5594 5599 5605 5610 5616 5618 5618 5621 5624 5628 5627
5637 5630 5623 5617 5609 5601 5594 5583 5579 5572 5565 5556 5548 5544 5536 5531 5526 5524 5522 5525 5524 5523 5523 5528 5540 5550 5559 5565 5574 5580 5584 5589 5593 5595 5600 5606 5609 5614 5616 5618 5622 5622 5621 5622
5641 5635 5628 5621 5617 5611 5603 5594 5588 5584 5578 5571 5565 5559 5553 5550 5543 5539 5540 5540 5537 5539 5540 5548 5557 5563 5570 5577 5581 5585 5588 5590 5593 5597 5604 5607 5610 5611 5612 5616 5617 5620 5618 5616
5644 5638 5633 5627 5622 5615 5610 5603 5597 5593 5589 5583 5578 5574 5571 5567 5561 5553 5553 5555 5556 5556 5560 5565 5570 5574 5578 5582 5587 5590 5592 5593 5594 5601 5605 5608 5611 5613 5616 5617 5621 5618 5613 5615
5645 5641 5636 5630 5624 5621 5616 5612 5606 5601 5597 5592 5587 5584 5582 5581 5580 5575 5570 5568 5569 5571 5574 5577 5580 5583 5587 5590 5591 5593 5595 5597 5601 5606 5608 5612 5614 5615 5617 5616 5614 5616 5619 5616
5645 5641 5638 5633 5629 5624 5619 5615 5611 5606 5602 5597 5594 5591 5589 5586 5586 5584 5583 5582 5582 5582 5583 5587 5590 5591 5592 5593 5594 5595 5599 5602 5606 5609 5610 5612 5614 5614 5615 5616 5616 5614 5613 5612
5644 5641 5638 5634 5630 5626 5621 5617 5614 5612 5610 5603 5599 5596 5594 5593 5593 5591 5590 5589 5587 5587 5589 5590 5592 5594 5598 5601 5603 5602 5606 5607 5610 5613 5614 5616 5617 5617 5617 5616 5615 5613 5610 5608
5644 5641 5638 5634 5630 5627 5623 5619 5615 5613 5611 5606 5604 5602 5599 5598 5597 5597 5597 5597 5597 5597 5598 5600 5601 5602 5604 5608 5611 5612 5614 5614 5615 5617 5619 5618 5615 5612 5614 5613 5610 5608 5609 5608
5644 5641 5638 5635 5631 5628 5625 5621 5617 5613 5612 5611 5608 5606 5605 5604 5602 5603 5604 5605 5605 5606 5606 5608 5610 5611 5612 5615 5616 5616 5617 5618 5618 5617 5615 5614 5614 5614 5612 5610 5610 5608 5602 5598
5644 5640 5637 5635 5632 5630 5628 5625 5623 5619 5614 5612 5611 5610 5609 5609 5609 5609 5610 5611 5612 5614 5614 5615 5616 5617 5618 5619 5619 5619 5618 5616 5614 5613 5613 5613 5612 5610 5608 5605 5601 5595 5590 5584
5644 5640 5637 5635 5633 5632 5630 5629 5627 5626 5623 5620 5618 5617 5616 5615 5615 5616 5617 5618 5618 5619 5619 5619 5620 5620 5620 5620 5619 5617 5616 5615 5615 5615 5614 5611 5608 5604 5600 5596 5591 5587 5582 5577
5644 5640 5637 5635 5634 5633 5633 5632 5631 5629 5629 5627 5626 5624 5623 5622 5622 5622 5622 5622 5623 5623 5623 5622 5622 5621 5621 5620 5619 5618 5617 5615 5613 5611 5608 5605 5601 5597 5593 5588 5583 5578 5572 5566